Rotterdam, Netherlands

2:03 AM CET on February 28, 2017 (GMT +0100)
Rotterdam

Weather History for EHRD - January, 2014

Change the Weather History Date:

Sunday, January 12, 2014

  Actual Average Record
Temperature  
Mean Temperature 38 °F -  
Max Temperature 44 °F 42 °F 53 °F (2007)
Min Temperature 31 °F 33 °F 24 °F (1997)
Degree Days  
Heating Degree Days 28    
Moisture  
Dew Point 34 °F    
Average Humidity 85    
Maximum Humidity 100    
Minimum Humidity 59    
Precipitation  
Precipitation 0.00 in - - ()
Sea Level Pressure  
Sea Level Pressure 30.14 in    
Wind  
Wind Speed 6 mph ()    
Max Wind Speed 15 mph    
Max Gust Speed -    
Visibility 8.2 miles    
Events      
Averages and records for this station are not official NWS values.
T = Trace of Precipitation, MM = Missing Value Source: Averaged Metar Reports

Daily Weather History Graph

Daily Weather History Graph

Search for Another Location

Airport or City:

Trip Planner

Search our weather history database for the weather conditions in past years. The results will help you decide how hot, cold, wet, or windy it might be!

Date:

Astronomy

Jan. 12, 2014 Rise Set
Actual Time 8:45 AM CET 4:55 PM CET
Civil Twilight 8:06 AM CET 5:35 PM CET
Nautical Twilight 7:23 AM CET 6:17 PM CET
Astronomical Twilight 6:42 AM CET 6:58 PM CET
Moon 2:15 PM CET (1/12) 5:26 AM CET (1/12)
Length of Visible Light 9h 29m
Length of Day
8h 10m
Waxing Gibbous, 88% of the Moon is Illuminated
Jan 12
Waxing Gibbous
Jan 16
Full
Jan 24
Last Quarter
Jan 30
New
Feb 6
First Quarter

Hourly Weather History & Observations

Time (CET) Temp. Windchill Dew Point Humidity Pressure Visibility Wind Dir Wind Speed Gust Speed Precip Events Conditions
12:00 AM 34 °F - 31 °F 86% 30.24 in 14 mi WSW 4.5 mph - -   Partly Cloudy
12:25 AM 33.8 °F 27.7 °F 32.0 °F 93% 30.24 in 6.2 mi WSW 6.9 mph - N/A   Unknown
12:55 AM 37.4 °F 32.1 °F 33.8 °F 87% 30.24 in 6.2 mi WSW 6.9 mph - N/A   Unknown
1:00 AM 38 °F - 34 °F 80% 30.25 in 19 mi WSW 4.5 mph - -   Partly Cloudy
1:25 AM 35.6 °F 31.7 °F 33.8 °F 93% 30.24 in 6.2 mi WSW 4.6 mph - N/A   Unknown
1:55 AM 35.6 °F 30.7 °F 33.8 °F 93% 30.24 in 6.2 mi WSW 5.8 mph - N/A   Unknown
2:00 AM 36 °F - 33 °F 84% 30.26 in 17 mi WSW 4.5 mph - -   Partly Cloudy
2:25 AM 33.8 °F 28.6 °F 32.0 °F 93% 30.24 in 6.2 mi WSW 5.8 mph - N/A   Unknown
2:55 AM 33.8 °F 29.6 °F 32.0 °F 93% 30.24 in 6.2 mi West 4.6 mph - N/A   Unknown
3:00 AM 34 °F - 33 °F 92% 30.26 in 16 mi West 4.5 mph - -   Mostly Cloudy
3:25 AM 33.8 °F 29.6 °F 32.0 °F 93% 30.24 in 6.2 mi WSW 4.6 mph - N/A   Unknown
3:55 AM 33.8 °F - 32.0 °F 93% 30.24 in 6.2 mi SW 2.3 mph - N/A   Unknown
4:00 AM 33 °F - 32 °F 94% 30.26 in 15 mi South 2.2 mph - -  
4:25 AM 33.8 °F 30.8 °F 32.0 °F 93% 30.24 in 6.2 mi SSW 3.5 mph - N/A   Unknown
4:55 AM 33.8 °F 30.8 °F 32.0 °F 93% 30.24 in 6.2 mi South 3.5 mph - N/A   Unknown
5:00 AM 33 °F - 31 °F 92% 30.26 in 13 mi South 4.5 mph - -   Scattered Clouds
5:25 AM 32.0 °F 27.5 °F 32.0 °F 100% 30.24 in 6.2 mi SSW 4.6 mph - N/A   Unknown
5:55 AM 33.8 °F 29.6 °F 32.0 °F 93% 30.24 in 6.2 mi South 4.6 mph - N/A   Unknown
6:00 AM 33 °F - 33 °F 98% 30.26 in 11 mi South 4.5 mph - -  
6:25 AM 33.8 °F 29.6 °F 32.0 °F 93% 30.24 in 6.2 mi SSE 4.6 mph - N/A   Unknown
6:55 AM 33.8 °F 29.6 °F 33.8 °F 100% 30.24 in 6.2 mi South 4.6 mph - N/A   Unknown
7:00 AM 33 °F - 33 °F 100% 30.25 in 9 mi South 4.5 mph - -   Partly Cloudy
7:25 AM 33.8 °F 28.6 °F 33.8 °F 100% 30.24 in 6.2 mi South 5.8 mph - N/A   Unknown
7:55 AM 33.8 °F 28.6 °F 33.8 °F 100% 30.24 in 6.2 mi South 5.8 mph - N/A   Unknown
8:00 AM 32 °F - 31 °F 97% 30.25 in 6 mi South 4.5 mph - -  
8:25 AM 32.0 °F 27.5 °F 32.0 °F 100% 30.24 in 5.0 mi South 4.6 mph - N/A   Unknown
8:55 AM 32.0 °F 27.5 °F 32.0 °F 100% 30.24 in 3.7 mi South 4.6 mph - N/A   Unknown
9:00 AM 32 °F - 32 °F 100% 30.25 in 4 mi South 4.5 mph - -   Mist
9:25 AM 33.8 °F 29.6 °F 33.8 °F 100% 30.24 in - South 4.6 mph - N/A   Mist
9:55 AM 35.6 °F 30.7 °F 35.6 °F 100% 30.24 in 3.1 mi South 5.8 mph - N/A   Mist
10:00 AM 36 °F - 35 °F 96% 30.25 in 4 mi SSE 4.5 mph - -   Mist
10:25 AM 35.6 °F 30.7 °F 35.6 °F 100% 30.24 in 5.0 mi SSE 5.8 mph - N/A   Unknown
10:55 AM 37.4 °F 33.8 °F 35.6 °F 93% 30.24 in 6.2 mi SSE 4.6 mph - N/A   Unknown
11:00 AM 38 °F - 36 °F 90% 30.25 in 7 mi SSE 4.5 mph - -  
11:25 AM 41.0 °F 36.4 °F 37.4 °F 87% 30.21 in 6.2 mi South 6.9 mph - N/A   Unknown
11:55 AM 41.0 °F 37.1 °F 37.4 °F 87% 30.21 in 6.2 mi South 5.8 mph - N/A   Unknown
12:00 PM 42 °F - 37 °F 76% 30.22 in 8 mi South 6.7 mph - -  
12:25 PM 41.0 °F 36.4 °F 37.4 °F 87% 30.21 in 6.2 mi South 6.9 mph - N/A   Unknown
12:55 PM 42.8 °F 38.0 °F 35.6 °F 76% 30.18 in 6.2 mi South 8.1 mph - N/A   Unknown
1:00 PM 42 °F - 36 °F 72% 30.19 in 13 mi SSE 6.7 mph - -   Partly Cloudy
1:25 PM 44.6 °F 40.2 °F 37.4 °F 76% 30.18 in 6.2 mi SSE 8.1 mph - N/A   Unknown
1:55 PM 44.6 °F 39.2 °F 37.4 °F 76% 30.15 in 6.2 mi SSE 10.4 mph - N/A   Unknown
2:00 PM 44 °F - 36 °F 65% 30.16 in 18 mi SSE 11.2 mph - -  
2:25 PM 42.8 °F 36.6 °F 37.4 °F 81% 30.12 in 6.2 mi SSE 11.5 mph - N/A   Unknown
2:55 PM 42.8 °F 37.5 °F 37.4 °F 81% 30.12 in 6.2 mi SSE 9.2 mph - N/A   Unknown
3:00 PM 43 °F - 36 °F 69% 30.13 in 13 mi SSE 8.9 mph - -   Scattered Clouds
3:25 PM 42.8 °F 36.6 °F 35.6 °F 76% 30.09 in 6.2 mi SSE 11.5 mph - N/A   Unknown
3:55 PM 42.8 °F 37.5 °F 35.6 °F 76% 30.09 in 6.2 mi SE 9.2 mph - N/A   Unknown
4:00 PM 42 °F - 35 °F 66% 30.09 in 19 mi SE 11.2 mph - -  
4:25 PM 41.0 °F 35.8 °F 35.6 °F 81% 30.06 in 6.2 mi SE 8.1 mph - N/A   Unknown
4:55 PM 41.0 °F 35.2 °F 33.8 °F 76% 30.06 in 6.2 mi SE 9.2 mph - N/A   Unknown
5:00 PM 41 °F - 35 °F 70% 30.06 in 15 mi SE 6.7 mph - -  
5:25 PM 41.0 °F 35.8 °F 33.8 °F 76% 30.04 in 6.2 mi ESE 8.1 mph - N/A   Unknown
5:55 PM 39.2 °F 33.6 °F 35.6 °F 87% 30.04 in 6.2 mi SE 8.1 mph - N/A   Unknown
6:00 PM 40 °F - 35 °F 75% 30.04 in 12 mi SE 8.9 mph - -  
6:25 PM 39.2 °F 32.5 °F 35.6 °F 87% 30.04 in 6.2 mi SE 10.4 mph - N/A   Unknown
6:55 PM 39.2 °F 32.5 °F 35.6 °F 87% 30.01 in 6.2 mi SE 10.4 mph - N/A   Unknown
7:00 PM 40 °F - 35 °F 75% 30.01 in 11 mi SE 11.2 mph - -   Partly Cloudy
7:25 PM 39.2 °F 31.6 °F 33.8 °F 81% 29.98 in 6.2 mi SE 12.7 mph - N/A   Unknown
7:55 PM 41.0 °F 34.3 °F 33.8 °F 76% 29.98 in 6.2 mi SE 11.5 mph - N/A   Unknown
8:00 PM 40 °F - 34 °F 73% 29.98 in 12 mi SE 11.2 mph - -   Partly Cloudy
8:25 PM 39.2 °F 32.5 °F 33.8 °F 81% 29.95 in 6.2 mi SE 10.4 mph - N/A   Unknown
8:55 PM 39.2 °F 33.0 °F 33.8 °F 81% 29.95 in 6.2 mi SE 9.2 mph - N/A   Unknown
9:00 PM 40 °F - 33 °F 67% 29.96 in 17 mi SE 8.9 mph - -  
9:25 PM 39.2 °F 32.5 °F 32.0 °F 75% 29.95 in 6.2 mi SE 10.4 mph - N/A   Unknown
9:55 PM 39.2 °F 31.6 °F 30.2 °F 70% 29.92 in 6.2 mi SSE 12.7 mph - N/A   Unknown
10:00 PM 40 °F - 31 °F 59% 29.93 in 25 mi SSE 11.2 mph - -   Scattered Clouds
10:25 PM 39.2 °F 31.2 °F 30.2 °F 70% 29.89 in 6.2 mi SSE 13.8 mph - N/A   Unknown
10:55 PM 39.2 °F 30.8 °F 30.2 °F 70% 29.89 in 6.2 mi SSE 15.0 mph - N/A   Unknown
11:00 PM 38 °F - 31 °F 66% 29.89 in 19 mi SSE 13.4 mph - -  
11:25 PM 37.4 °F 29.3 °F 30.2 °F 75% 29.89 in 6.2 mi South 12.7 mph - N/A   Unknown
11:55 PM 39.2 °F 31.6 °F 32.0 °F 75% 29.89 in 6.2 mi South 12.7 mph - N/A   Overcast